Regional Weather Roundup
Issued by NWS Northern Indiana

Home | Current Version | Previous Version | Graphics & Text | Print | Product List | Glossary On
Versions: 1 2 3 4 5 6 7 8 9 10 11 12 13 14 15 16 17 18 19 20 21 22 23 24 25 26 27 28 29 30 31 32 33 34 35 36 37 38 39 40 41 42 43 44 45 46 47 48 49 50
000
ASUS43 KIWX 291810
RWRIWX

KIWX WEATHER ROUNDUP
NATIONAL WEATHER SERVICE NORTHERN INDIANA
200 PM EDT SUN MAR 29 2015

NOTE: "FAIR" INDICATES FEW OR NO CLOUDS BELOW 12,000 FEET WITH NO
SIGNIFICANT WEATHER AND/OR OBSTRUCTIONS TO VISIBILITY.

* THESE STATIONS ARE NOT UNDER NWS QUALITY CONTROL. THEY ALSO MAY NOT
  REPORT WEATHER SUCH AS PRECIPITATION OR FOG.

INZ001>027-291900-
NORTHERN INDIANA

CITY           SKY/WX    TMP DP  RH WIND       PRES   REMARKS
GARY*          DRIZZLE   37  23  56 S20G36    29.93F
VALPARAISO     LGT RAIN  37  24  59 S20G28    29.95F
6HR MIN TEMP:  27; 6HR MAX TEMP:  39; 6HR PCP: TRACE;

MICHIGAN CITY* LGT RAIN  36  19  51 S16G22    29.94F
LAPORTE*       LGT RAIN  39  22  50 S17G26    29.97F
6HR MIN TEMP:  29; 6HR MAX TEMP:  42;

KNOX*            N/A     41  -6  13 S23G30    29.98F
SOUTH BEND     CLOUDY    41  13  31 S23G36    29.98F
6HR MIN TEMP:  29; 6HR MAX TEMP:  44;

ELKHART*       CLOUDY    41  10  28 S18G29    30.00F
GOSHEN         CLOUDY    42  16  34 S24G32    30.01F
6HR MIN TEMP:  27; 6HR MAX TEMP:  42;

MONTICELLO*    CLOUDY    42  16  34 S14G25    30.03F
6HR MIN TEMP:  28; 6HR MAX TEMP:  43;

LOGANSPORT*    CLOUDY    41  21  45 S22       30.06F
ROCHESTER*     CLOUDY    45  18  33 S20G30    30.04F
WARSAW*        CLOUDY    41  19  42 S13G20    30.04F
ANGOLA*        SUNNY     43  25  49 S20       30.03F
FORT WAYNE     CLOUDY    43  21  41 S25       30.09F
6HR MIN TEMP:  25; 6HR MAX TEMP:  43;

HUNTINGTON*    PTSUNNY   42  12  29 S17G26    30.07F
6HR MIN TEMP:  26; 6HR MAX TEMP:  42;

PERU/GRISSOM   CLOUDY    44  19  36 S22G29    30.05F
6HR MIN TEMP:  27; 6HR MAX TEMP:  44;

MARION*        PTSUNNY   42  18  38 S22G31    30.10F
6HR MIN TEMP:  -9; 6HR MAX TEMP:  69;


$$
INZ028>050-291900-
CENTRAL INDIANA

CITY           SKY/WX    TMP DP  RH WIND       PRES   REMARKS
LAFAYETTE      CLOUDY    41  16  36 S18G26    30.05F
6HR MIN TEMP:  28; 6HR MAX TEMP:  43;

KOKOMO*          N/A     43  21  42 S20G26    30.07F
6HR MIN TEMP:  27; 6HR MAX TEMP:  43;

MUNCIE*        PTSUNNY   43  16  33 S21G31    30.11F
6HR MIN TEMP:  26; 6HR MAX TEMP:  44;

INDIANAPOLIS   CLOUDY    46  11  24 S21G28    30.09F
6HR MIN TEMP:  25; 6HR MAX TEMP:  46;


$$
MIZ043>046-050>051-056>058-064>065-071>073-077>080-291900-
SOUTHWEST LOWER MICHIGAN

CITY           SKY/WX    TMP DP  RH WIND       PRES   REMARKS
BATTLE CREEK   PTSUNNY   44  15  31 S22G35    29.97F
6HR MIN TEMP:  25; 6HR MAX TEMP:  44;

BENTON HARBOR  LGT RAIN  39  14  36 S21G35    29.92F
6HR MIN TEMP:  28; 6HR MAX TEMP:  43; 6HR PCP: TRACE;

COLDWATER*     CLOUDY    42  14  32 S16G22    30.02F
6HR MIN TEMP:  25; 6HR MAX TEMP:  42;

HILLSDALE*     PTSUNNY   42  17  37 S20G25    30.03F
6HR MIN TEMP:  22; 6HR MAX TEMP:  42;

HOLLAND        CLOUDY    42  15  33 S29G37    29.92F
6HR MIN TEMP:  27; 6HR MAX TEMP:  44;

GRAND RAPIDS   CLOUDY    43  13  29 S24G35    29.92F
6HR MIN TEMP:  25; 6HR MAX TEMP:  43;

KALAMAZOO        N/A     42  14  32 S26G35    29.97F
6HR MIN TEMP:  26; 6HR MAX TEMP:  43;

STURGIS*       CLOUDY    41  18  38 S21G30    30.01F
THREE RIVERS*  FAIR      43  17  34 S20G30    30.00F

$$
OHZ001>008-015>018-024>025-291900-
NORTHWEST OHIO

CITY           SKY/WX    TMP DP  RH WIND       PRES   REMARKS
WAUSEON*       FAIR      41  19  42 S25G35    30.08F
DEFIANCE       PTSUNNY   41  21  44 S16G29    30.10F
6HR MIN TEMP:  22; 6HR MAX TEMP:  42;

FINDLAY        MOSUNNY   44  20  38 S23G30    30.13F
6HR MIN TEMP:  24; 6HR MAX TEMP:  44;

TOLEDO EXPRESS PTSUNNY   41  17  38 S16G30    30.09F
6HR MIN TEMP:  24; 6HR MAX TEMP:  42;

TOLEDO METCALF MOSUNNY   43  17  35 S21G29    30.12F
6HR MIN TEMP:  24; 6HR MAX TEMP:  43;

LIMA           MOSUNNY   43  19  38 S23       30.12F
6HR MIN TEMP:  24; 6HR MAX TEMP:  43;


$$
AND FOR LAKE MICHIGAN COASTAL AND OPEN LAKE BUOY OBSERVATIONS

STATION/POSITION TEMP    WIND        PRES    VSBY  WAVE
                 AIR SEA DIR/SP/G                  HT/PER
                 (F)     (DEG/KT/KT) (MB)    (MI)  (FT/S)
CALUMET HARBOR    37     180/ 16/ 24 1012.3R
MICHIGAN CITY     37     160/ 20/ 29   N/A
BURNS HARBOR      37     180/ 18/ 31 1013.9S
SAINT JOSEPH      39     170/ 11/ 22 1013.5F

$$
&&


USA.gov is the U.S. government's official web portal to all federal, state and local government web resources and services.